CAPE
0 0 0 0 0 0 0 0 0 3 2 2 2 3 3 4 4 6 6 5 6 7 6 8 15 11 6 18 32 11 27 23 15 3 0 0 0 1 0 1 0 0 0
0 0 0 0 0 0 0 0 0 1 0 0 1 2 3 4 3 5 6 6 6 5 5 6 7 12 4 9 22 13 2 0 9 7 11 0 0 0 0 1 0 0 0
0 0 0 0 0 0 0 0 0 0 0 0 1 1 1 1 1 1 2 2 2 2 3 4 0 9 5 0 5 1 0 2 2 13 1 0 0 0 0 1 0 0 0
0 0 0 0 0 0 0 0 0 0 0 0 0 0 0 0 0 0 0 0 0 0 0 1 3 12 0 0 0 0 3 0 0 1 1 0 0 0 0 0 0 0 0
0 0 0 0 0 0 0 0 0 0 0 0 0 0 0 0 0 2 1 0 0 0 0 0 0 0 0 2 3 1 1 3 1 1 1 0 0 0 0 0 0 0 0
0 0 0 0 0 0 0 0 0 0 0 0 0 0 0 2 10 3 2 1 0 0 0 0 0 0 0 8 15 18 4 3 0 1 10 0 0 0 0 0 0 0 0
0 0 0 0 0 0 0 0 0 0 0 0 0 0 0 0 12 1 2 0 0 0 1 2 1 0 0 0 2 4 8 6 9 0 0 0 0 0 0 0 0 0 0
0 0 0 0 0 0 0 0 0 0 0 0 0 0 0 0 14 8 0 0 0 0 0 0 0 0 0 0 0 0 0 0 0 0 0 0 0 0 0 0 0 0 0
0 0 0 0 0 0 0 0 0 0 0 0 0 0 0 0 5 7 0 0 0 0 0 1 0 0 4 5 0 0 0 0 0 1 0 0 0 0 0 0 0 0 0
0 0 0 0 0 0 0 0 0 0 0 0 0 0 0 0 1 4 0 0 0 1 0 0 5 6 7 1 0 0 0 0 0 0 0 0 0 2 2 0 0 0 0
0 0 0 0 0 0 0 0 0 0 0 0 0 0 0 0 0 0 3 0 0 0 0 0 1 2 2 7 1 0 0 0 1 0 0 0 0 0 0 0 0 0 0
0 0 0 0 0 0 0 0 0 0 0 0 0 0 0 0 0 0 0 0 0 0 0 0 0 6 5 4 2 6 3 0 0 0 0 0 0 0 0 0 0 0 0
0 0 0 0 0 0 0 0 0 0 0 0 0 0 0 0 0 0 0 0 0 0 0 0 1 1 1 1 5 2 0 0 0 0 0 0 0 0 0 0 0 0 0
0 0 0 0 0 0 0 0 0 0 0 0 0 0 0 0 0 0 0 0 0 0 0 0 0 0 0 0 0 0 0 0 0 0 0 0 0 0 0 0 0 0 0
0 0 0 0 0 0 0 0 0 0 0 0 0 0 0 0 0 0 0 0 0 0 0 0 0 0 0 0 0 0 0 0 0 0 0 0 0 0 0 0 0 0 0
0 0 0 0 0 0 0 0 0 0 0 0 0 0 0 0 0 0 0 0 0 0 0 0 0 0 0 0 0 0 0 0 0 0 0 0 0 0 0 0 0 0 0
0 0 0 0 0 0 0 0 0 0 0 0 0 0 0 0 0 0 0 0 0 0 0 0 0 0 0 0 0 0 0 0 0 0 0 0 0 0 0 0 0 0 0
0 0 0 0 0 0 0 0 0 0 0 0 0 0 0 0 0 0 0 0 0 0 0 0 0 0 0 0 0 0 0 0 0 0 0 0 0 0 0 0 0 0 0
0 0 0 0 0 0 0 0 0 0 0 0 0 0 0 0 0 0 0 0 0 0 0 0 0 0 0 0 0 0 0 0 0 0 0 0 0 0 0 0 0 0 0
0 0 0 0 0 0 0 0 0 0 0 0 0 0 0 0 0 0 0 0 0 0 0 0 0 0 0 0 0 0 0 0 0 0 0 0 0 0 0 0 0 0 0
0 0 0 0 0 0 0 0 0 0 0 0 0 0 0 0 0 0 0 0 0 0 0 0 0 0 0 0 0 0 0 0 0 0 0 0 0 0 0 0 0 0 0
0 0 0 0 0 0 0 0 0 0 0 0 0 0 0 0 0 0 0 0 0 0 0 0 0 0 0 0 0 0 0 0 0 0 0 0 0 0 0 0 0 0 0
0 0 0 0 0 0 0 0 0 0 0 0 0 0 0 0 0 0 0 0 0 0 0 0 0 0 0 0 0 0 0 0 0 0 0 0 0 0 0 0 0 0 0
0 0 0 0 0 0 0 0 0 0 0 0 0 0 0 0 0 0 0 0 0 0 0 0 0 0 0 0 0 0 0 0 0 0 0 0 0 0 0 0 0 0 0
0 0 0 0 0 0 0 0 0 0 0 0 0 0 0 0 0 0 0 0 0 0 0 0 0 0 0 0 0 0 0 0 0 0 0 0 0 0 0 0 0 0 0
0 0 0 0 0 0 0 0 0 0 0 0 0 0 0 0 0 0 0 0 0 0 0 0 0 0 0 0 0 0 0 0 0 0 0 0 0 0 0 0 0 0 0
CIN
0 0 0 0 0 0 0 0 0 0 0 0 0 0 0 0 0 0 0 0 0 0 0 0 0 0 0 0 0 0 0 0 0 -3 0 0 0 0 0 0 0 0 0
0 0 0 0 0 0 0 0 0 0 0 0 0 0 0 0 0 0 0 0 0 0 0 0 0 0 0 0 0 0 0 0 0 0 -7 0 0 0 0 0 0 0 0
0 0 0 0 0 0 0 0 0 0 0 0 0 0 0 0 0 0 0 0 0 0 0 0 0 0 0 0 0 0 0 -2 -1 0 -1 0 0 0 0 0 0 0 0
0 0 0 0 0 0 0 0 0 0 0 0 -2 0 0 0 0 0 0 0 0 0 0 0 -1 0 -2 0 0 0 0 0 0 0 0 0 0 0 0 0 0 0 0
0 0 0 0 0 0 0 0 0 0 0 -1 0 0 0 0 0 -1 0 0 0 0 0 0 0 0 0 0 -1 0 0 0 0 0 0 0 0 0 0 0 0 0 0
0 0 0 0 0 0 0 0 0 0 0 0 0 0 0 0 0 0 0 0 0 0 0 0 0 0 0 0 0 0 0 0 0 0 -1 0 0 0 0 0 0 0 0
0 0 0 0 0 0 0 0 0 0 0 0 -1 0 0 0 0 0 0 0 0 0 0 0 0 0 0 0 -1 -1 0 0 0 0 0 0 0 0 0 0 0 0 0
0 0 0 0 0 0 0 0 0 0 0 0 0 0 0 0 0 0 0 0 0 0 0 0 0 0 0 0 0 0 0 0 0 0 0 0 0 0 0 0 0 0 0
0 0 0 0 0 0 0 0 0 0 0 0 0 0 0 0 0 0 0 0 0 0 0 0 0 0 0 0 0 0 0 0 0 0 0 0 0 0 0 0 0 0 0
0 0 0 0 0 0 0 0 0 0 0 0 0 0 0 0 0 0 0 0 0 0 0 0 -1 0 0 0 0 0 0 0 0 0 0 0 0 0 0 0 0 0 0
0 0 0 0 0 0 0 0 0 0 0 0 0 0 0 0 0 0 0 0 0 0 0 0 0 0 0 0 0 0 0 0 0 0 0 0 0 0 0 0 0 0 0
0 0 0 0 0 0 0 0 0 0 0 0 0 0 0 0 0 0 0 0 0 0 0 0 0 0 0 0 0 0 0 0 0 0 0 0 0 0 0 0 0 0 0
0 0 0 0 0 0 0 0 0 0 0 0 0 0 0 0 0 0 0 0 0 0 0 0 0 0 0 0 0 0 0 0 0 0 0 0 0 0 0 0 0 0 0
0 0 0 0 0 0 0 0 0 0 0 0 0 0 0 0 0 0 0 0 0 0 0 0 0 0 0 0 0 0 0 0 0 0 0 0 0 0 0 0 0 0 0
0 0 0 0 0 0 0 0 0 0 0 0 0 0 0 0 0 0 0 0 0 0 0 0 0 0 0 0 0 0 0 0 0 0 0 0 0 0 0 0 0 0 0
0 0 0 0 0 0 0 0 0 0 0 0 0 0 0 0 0 0 0 0 0 0 0 0 0 0 0 0 0 0 0 0 0 0 0 0 0 0 0 0 0 0 0
0 0 0 0 0 0 0 0 0 0 0 0 0 0 0 0 0 0 0 0 0 0 0 0 0 0 0 0 0 0 0 0 0 0 0 0 0 0 0 0 0 0 0
0 0 0 0 0 0 0 0 0 0 0 0 0 0 0 0 0 0 0 0 0 0 0 0 0 0 0 0 0 0 0 0 0 0 0 0 0 0 0 0 0 0 0
0 0 0 0 0 0 0 0 0 0 0 0 0 0 0 0 0 0 0 0 0 0 0 0 0 0 0 0 0 0 0 0 0 0 0 0 0 0 0 0 0 0 0
0 0 0 0 0 0 0 0 0 0 0 0 0 0 0 0 0 0 0 0 0 0 0 0 0 0 0 0 0 0 0 0 0 0 0 0 0 0 0 0 0 0 0
0 0 0 0 0 0 0 0 0 0 0 0 0 0 0 0 0 0 0 0 0 0 0 0 0 0 0 0 0 0 0 0 0 0 0 0 0 0 0 0 0 0 0
0 0 0 0 0 0 0 0 0 0 0 0 0 0 0 0 0 0 0 0 0 0 0 0 0 0 0 0 0 0 0 0 0 0 0 0 0 0 0 0 0 0 0
0 0 0 0 0 0 0 0 0 0 0 0 0 0 0 0 0 0 0 0 0 0 0 0 0 0 0 0 0 0 0 0 0 0 0 0 0 0 0 0 0 0 0
0 0 0 0 0 0 0 0 0 0 0 0 0 0 0 0 0 0 0 0 0 0 0 0 0 0 0 0 0 0 0 0 0 0 0 0 0 0 0 0 0 0 0
0 0 0 0 0 0 0 0 0 0 0 0 0 0 0 0 0 0 0 0 0 0 0 0 0 0 0 0 0 0 0 0 0 0 0 0 0 0 0 0 0 0 0
0 0 0 0 0 0 0 0 0 0 0 0 0 0 0 0 0 0 0 0 0 0 0 0 0 0 0 0 0 0 0 0 0 0 0 0 0 0 0 0 0 0 0
Wind_Speed
4 2 3 4 4 4 4 5 7 9 9 9 10 11 11 11 11 11 12 13 14 14 14 14 15 11 8 9 7 9 7 9 14 10 3 2 4 4 2 1 2 3 4
3 1 2 3 4 5 5 6 8 8 8 9 10 10 10 10 11 12 13 12 13 14 15 14 14 10 13 11 9 10 9 11 11 12 6 4 5 2 1 1 2 2 2
3 1 2 4 4 4 5 6 8 7 8 9 9 10 11 11 11 11 12 13 14 14 14 13 15 12 13 8 8 7 8 9 11 11 10 3 2 2 1 3 2 3 5
3 2 2 2 3 3 4 6 6 6 8 9 8 10 10 11 11 12 12 13 15 13 11 11 10 11 8 8 6 9 9 10 11 9 8 5 2 2 2 1 3 4 4
4 2 5 4 4 3 3 5 6 5 7 7 8 10 10 9 8 10 9 12 9 6 7 8 9 8 12 13 8 9 8 8 7 7 6 2 2 2 3 1 3 2 5
4 5 4 2 4 3 3 5 5 6 6 5 7 10 10 8 19 18 14 9 7 5 7 7 8 10 12 17 19 19 15 10 6 5 3 4 5 3 2 3 4 4 4
4 5 4 2 3 3 3 4 5 4 4 6 7 9 10 11 23 20 16 7 7 7 7 7 8 7 10 10 14 17 17 20 20 9 9 7 5 6 6 4 3 2 3
5 6 4 3 4 4 3 3 5 3 3 4 4 6 8 9 22 20 16 7 6 7 7 8 7 8 8 9 8 8 8 8 11 9 12 10 6 5 5 3 5 8 8
6 7 5 5 3 4 1 3 4 2 3 3 3 5 5 8 20 20 12 7 7 8 9 10 8 7 10 9 8 4 0 3 6 4 3 4 7 12 13 10 7 9 3
8 8 6 6 5 5 4 4 4 2 2 3 4 3 5 6 14 18 13 6 7 7 9 10 18 13 12 14 8 5 6 7 8 8 6 12 15 13 8 3 7 8 7
6 6 6 6 6 6 5 2 2 2 1 2 3 4 4 4 7 15 16 6 5 6 6 8 8 18 18 18 14 7 6 6 10 8 8 8 9 9 8 8 9 5 3
7 7 7 7 5 4 5 3 2 2 1 3 2 3 3 4 10 13 14 13 11 5 6 5 6 16 18 17 11 14 14 10 6 6 6 6 6 7 7 8 10 11 10
7 9 7 7 6 5 4 4 2 1 2 1 2 2 3 4 4 11 13 13 12 5 4 8 13 14 14 12 16 15 11 6 5 6 6 5 4 3 2 6 9 12 12
9 8 7 7 6 5 3 2 2 3 2 1 0 1 2 2 3 3 3 3 6 6 7 5 9 11 15 11 6 10 6 6 5 5 5 4 3 4 5 4 4 5 6
9 7 8 8 8 6 5 5 4 4 4 4 3 3 1 2 2 5 5 2 2 4 3 4 4 5 5 6 5 6 5 5 5 3 4 3 4 4 3 2 2 3 5
9 8 8 7 7 6 5 2 8 9 11 9 7 6 3 6 2 3 6 8 7 4 5 3 3 3 3 2 3 3 4 4 3 3 3 2 2 2 2 3 4 4 7
12 10 8 8 8 8 6 7 6 4 11 11 10 7 6 5 4 3 5 3 6 4 3 2 2 1 1 2 2 1 1 2 1 3 2 2 2 3 4 4 4 4 3
12 12 9 9 8 8 8 8 6 6 6 3 10 9 9 5 5 3 5 5 4 5 2 2 2 1 0 1 0 1 2 3 3 2 3 2 2 2 2 3 2 3 3
9 9 9 8 8 9 8 7 6 6 5 3 1 5 5 10 8 6 0 3 2 1 0 0 2 2 1 2 2 2 1 2 2 2 1 2 1 2 2 2 3 3 5
7 11 9 8 7 8 7 7 6 6 4 4 4 4 2 2 1 2 1 2 2 2 3 3 2 1 2 1 1 1 3 2 2 1 2 2 2 2 2 3 3 3 1
5 6 10 7 8 8 8 8 7 6 6 6 7 5 10 5 4 4 3 3 3 3 3 2 3 2 2 2 3 2 1 1 1 2 2 3 4 2 3 3 3 3 4
3 3 5 7 4 6 7 6 6 7 7 7 4 4 14 3 3 3 3 3 4 5 3 3 2 2 2 2 2 3 3 4 3 3 3 3 3 2 2 2 3 2 2
2 3 2 1 2 3 2 2 3 4 4 4 3 3 3 3 4 4 4 3 3 2 1 3 3 2 1 1 1 3 2 2 3 3 4 3 3 3 3 3 3 3 3
2 3 3 3 3 3 4 4 3 4 4 4 3 2 3 3 3 4 2 2 4 4 3 3 3 3 1 2 2 2 0 1 1 1 3 2 3 3 2 2 2 3 2
5 4 3 2 1 1 2 2 2 3 3 3 2 1 1 2 3 4 4 4 5 4 4 3 2 3 3 3 2 3 3 3 1 1 0 1 2 4 3 3 3 2 2
10 10 8 7 7 5 4 4 5 5 6 6 6 6 5 6 5 5 5 5 4 4 5 3 4 5 5 4 4 4 5 5 3 2 1 1 1 1 2 3 4 2 3
Wind_Direction
214 233 296 316 318 324 325 320 318 314 310 302 297 293 288 287 283 278 272 270 268 267 263 261 266 252 257 251 251 240 253 266 267 271 243 283 299 307 327 18 34 342 351
190 223 298 316 342 337 328 317 307 305 302 294 292 290 289 287 286 283 282 276 269 265 263 259 256 252 261 244 246 247 250 257 281 274 255 231 234 312 259 22 5 13 330
165 211 314 343 344 319 318 311 297 304 300 298 298 301 302 297 289 281 276 273 268 263 263 258 259 258 253 240 239 246 245 259 264 268 260 247 237 245 321 70 16 22 32
177 202 283 305 286 302 302 301 289 302 306 310 316 312 307 300 294 286 280 275 267 259 259 254 252 253 240 232 235 253 260 257 251 264 256 245 228 234 232 185 92 38 19
170 200 247 277 290 316 312 303 292 298 331 318 335 323 315 313 306 323 322 306 295 258 263 258 248 246 242 245 248 246 249 258 246 242 247 148 198 236 207 140 84 105 37
174 227 244 286 305 319 330 309 302 350 336 327 344 327 328 321 344 348 351 339 311 276 271 262 248 246 248 248 252 252 246 257 273 257 253 235 231 170 170 153 132 134 177
176 233 228 225 288 293 328 331 310 302 322 332 350 333 332 338 360 359 355 341 347 346 325 301 281 257 240 240 249 255 256 256 249 246 244 234 241 184 158 155 159 85 100
185 236 208 193 263 288 7 340 308 293 319 314 309 324 340 344 2 4 1 336 344 346 351 337 313 301 262 242 239 244 258 264 261 248 238 240 224 170 166 138 102 111 91
201 231 210 185 224 274 57 322 281 300 309 308 291 316 339 347 3 11 9 346 360 359 3 0 357 348 353 327 228 205 175 339 333 261 200 183 182 162 140 123 138 134 92
202 220 198 177 207 243 207 208 224 253 278 309 330 332 328 334 354 16 25 4 3 8 7 6 19 26 34 60 57 55 59 26 25 29 38 50 50 54 50 19 157 145 125
181 187 194 187 212 223 243 193 217 280 353 1 344 319 326 336 332 21 26 20 12 355 7 0 7 31 44 58 67 65 72 56 42 39 39 41 44 41 36 41 42 68 85
183 186 198 191 210 213 214 227 199 179 351 340 350 327 330 332 12 22 28 35 32 18 10 353 1 29 44 49 52 71 75 68 62 58 53 46 55 47 39 49 59 66 51
180 197 198 193 190 211 221 204 176 157 151 305 348 350 333 337 340 20 26 34 33 20 7 32 37 40 41 35 54 55 37 37 66 70 63 55 44 41 65 71 71 81 73
200 199 188 201 192 195 219 227 171 162 190 196 272 326 314 323 330 332 348 353 27 43 32 7 45 53 58 55 32 36 40 54 59 60 63 42 27 36 46 22 55 61 66
206 199 198 195 197 194 200 188 195 208 178 185 204 203 179 318 291 9 12 351 20 39 55 15 14 19 22 21 27 29 28 34 62 39 79 66 55 73 54 13 62 40 76
206 202 204 198 190 193 188 221 221 205 210 213 207 188 231 237 285 8 14 26 28 73 52 44 21 12 45 28 37 30 19 38 36 43 34 41 87 78 62 25 53 72 108
216 205 197 199 194 188 183 185 198 257 230 226 227 230 235 229 264 309 336 9 39 73 83 38 90 53 354 25 36 51 90 333 54 66 66 60 61 35 41 43 69 90 74
218 218 202 200 198 193 193 198 191 183 206 233 249 231 236 245 253 270 333 50 12 16 88 152 175 202 210 119 45 50 10 23 46 58 64 58 61 91 77 91 85 101 77
211 215 207 200 197 196 191 188 192 196 205 195 228 237 241 235 238 260 147 129 168 226 250 309 207 204 215 173 177 143 139 133 128 102 89 120 116 89 61 95 108 109 119
212 216 202 201 193 188 187 189 189 199 196 204 211 206 188 104 177 234 216 162 177 214 189 180 207 206 188 204 218 183 144 150 152 146 177 156 148 126 147 159 157 132 137
204 207 205 193 198 195 190 193 190 179 195 205 222 195 196 178 196 196 193 201 191 201 202 210 213 182 197 182 162 164 203 239 235 208 183 194 167 172 173 169 161 149 143
165 180 194 209 194 191 195 186 181 189 196 202 213 216 221 188 183 200 205 203 200 191 192 177 186 198 194 185 213 191 204 207 197 200 190 187 193 180 158 146 154 152 148
177 177 154 155 153 144 130 132 167 190 183 188 168 199 205 186 190 200 207 202 196 155 121 104 103 71 69 103 159 175 179 222 232 196 185 188 190 190 178 171 168 163 159
231 165 166 188 180 159 156 169 169 167 172 179 178 193 197 202 202 207 203 126 97 85 87 96 102 122 94 26 19 19 8 219 126 167 169 164 184 192 168 161 166 180 170
27 56 88 114 156 146 166 129 135 149 139 146 151 139 107 94 98 73 64 74 87 88 81 83 84 78 70 57 21 353 318 353 358 306 54 164 185 202 183 172 168 159 151
36 41 42 42 39 40 50 64 60 60 62 60 57 52 54 61 59 58 57 66 73 77 73 50 53 56 53 23 347 346 330 312 289 284 168 143 189 180 153 163 165 142 145